White Plains, CT

6:50 PM EST on November 15, 2019 (GMT -0500)
Westchester County

Weather History for KHPN - September, 2019

Change the Weather History Date:

Monday, September 16, 2019

  Actual Average Record
Temperature  
Mean Temperature 68 °F -  
Max Temperature 73 °F 71 °F 88 °F (1991)
Min Temperature 62 °F 55 °F 40 °F (1984)
Cooling Degree Days 2    
Growing Degree Days 18 (Base 50)    
Moisture  
Dew Point 59 °F    
Average Humidity 78    
Maximum Humidity 90    
Minimum Humidity 63    
Precipitation  
Precipitation 0.00 in - - ()
Sea Level Pressure  
Sea Level Pressure 30.04 in    
Wind  
Wind Speed 3 mph ()    
Max Wind Speed 6 mph    
Max Gust Speed -    
Visibility 10.0 miles    
Events Rain    
Averages and records for this station are not official NWS values.
T = Trace of Precipitation, MM = Missing Value Source: Averaged Metar Reports

Daily Weather History Graph

Daily Weather History Graph

Search for Another Location

Airport or City:

Astronomy

Sep. 16, 2019 Rise Set
Actual Time 6:36 AM EDT 7:02 PM EDT
Civil Twilight 6:08 AM EDT 7:30 PM EDT
Nautical Twilight 5:35 AM EDT 8:02 PM EDT
Astronomical Twilight 5:02 AM EDT 8:35 PM EDT
Moon 8:35 PM EDT (9/16) 8:41 AM EDT (9/16)
Length of Visible Light 13h 21m
Length of Day
12h 26m
Waning Gibbous, 94% of the Moon is Illuminated
Sep 16
Waning Gibbous
Sep 21
Last Quarter
Sep 28
New
Oct 5
First Quarter
Oct 13
Full

Hourly Weather History & Observations

Time (EDT) Temp. Dew Point Humidity Pressure Visibility Wind Dir Wind Speed Gust Speed Precip Events Conditions
12:56 AM 63.0 °F 59.0 °F 87% 30.05 in 10.0 mi NW 4.6 mph - N/A   Clear
1:56 AM 63.0 °F 57.9 °F 84% 30.05 in 10.0 mi Calm Calm - N/A   Clear
2:56 AM 62.1 °F 59.0 °F 90% 30.04 in 10.0 mi NW 3.5 mph - N/A   Partly Cloudy
3:56 AM 64.0 °F 60.1 °F 87% 30.04 in 10.0 mi NW 4.6 mph - N/A   Partly Cloudy
4:56 AM 64.9 °F 61.0 °F 87% 30.04 in 10.0 mi NNW 5.8 mph - 0.00 in Rain Light Rain
5:56 AM 64.9 °F 61.0 °F 87% 30.05 in 10.0 mi NNW 5.8 mph - 0.00 in   Mostly Cloudy
6:56 AM 64.0 °F 60.1 °F 87% 30.06 in 10.0 mi East 3.5 mph - N/A   Mostly Cloudy
7:56 AM 64.9 °F 60.1 °F 84% 30.07 in 10.0 mi Calm Calm - N/A   Mostly Cloudy
8:56 AM 66.0 °F 61.0 °F 84% 30.07 in 10.0 mi NW 3.5 mph - N/A   Mostly Cloudy
9:56 AM 66.0 °F 61.0 °F 84% 30.08 in 10.0 mi NNE 4.6 mph - 0.00 in   Mostly Cloudy
10:56 AM 69.1 °F 60.1 °F 73% 30.07 in 10.0 mi North 3.5 mph - N/A   Mostly Cloudy
11:38 AM 71.1 °F 60.1 °F 68% 30.07 in 10.0 mi Variable 3.5 mph - N/A   Mostly Cloudy
11:56 AM 71.1 °F 61.0 °F 70% 30.06 in 10.0 mi Variable 3.5 mph - N/A   Mostly Cloudy
12:56 PM 71.1 °F 61.0 °F 70% 30.05 in 10.0 mi NNW 4.6 mph - N/A   Overcast
1:56 PM 73.0 °F 60.1 °F 64% 30.04 in 10.0 mi West 4.6 mph - N/A   Scattered Clouds
2:56 PM 73.0 °F 60.1 °F 64% 30.02 in 10.0 mi West 4.6 mph - N/A   Scattered Clouds
3:56 PM 72.0 °F 60.1 °F 66% 30.01 in 10.0 mi NW 4.6 mph - N/A   Mostly Cloudy
4:56 PM 72.0 °F 60.1 °F 66% 30.01 in 10.0 mi NW 3.5 mph - N/A   Mostly Cloudy
5:56 PM 72.0 °F 61.0 °F 68% 30.00 in 10.0 mi NW 4.6 mph - N/A   Scattered Clouds
6:56 PM 66.9 °F 62.1 °F 84% 30.01 in 10.0 mi Calm Calm - N/A   Partly Cloudy
7:56 PM 64.0 °F 61.0 °F 90% 30.02 in 10.0 mi Calm Calm - N/A   Clear
8:56 PM 64.0 °F 60.1 °F 87% 30.04 in 10.0 mi NW 3.5 mph - N/A   Clear
9:56 PM 64.0 °F 57.0 °F 78% 30.04 in 10.0 mi Calm Calm - N/A   Partly Cloudy
10:56 PM 64.0 °F 53.1 °F 67% 30.06 in 10.0 mi NNE 4.6 mph - N/A   Mostly Cloudy
11:56 PM 63.0 °F 50.0 °F 63% 30.06 in 10.0 mi North 5.8 mph - N/A   Overcast